STARLINK-37237, 69185

Orbit data source: Space-Track

STARLINK-37237, 69185 is a payload satellite owned by SpaceX/Seattle (US) in LEO that was launched on Mon, 25 May 2026 UTC via an FALCON 9 launch vehicle from the Air Force Eastern Test Range (AFETR). Payload-class satellites include a variety of spacecraft equipped with specific instruments for various scientific and technological missions. These include communications satellites like Starlink; space stations such as the ISS; scientific satellites like the Hubble; Earth observation satellites from companies like Planet Labs, Umbra, and HawkEye 360; GPS; miniature CubeSats for education and research; and military/defense satellites.

Loading next visibility...
Identifier
69185, 2026-114D
Orbit
LEO
Country
Flag of USUS
Related business
Manufacturer
SpaceX/Seattle
Mission
Operational spacecraft
Bus & Motor
STARLINK V2MO, Unknown motor
Mass
575 kg wet, ~530 kg dry
Launch date (UTC)
2026-05-25 (4 weeks ago)
Launch vehicle
FALCON 9
Launch site
Air Force Eastern Test Range (AFETR)
Object type
Payload
Rocket body
Debris
Shape & HBR
Unknown
Radar Cross Section
Large (>1 m²)

Expand to show TLE details & history
Last TLE update: 1 day ago

TLE from 1 day ago
0 STARLINK-37237
1 69185U 26114D   26170.55782330  .00187265  00000-0  10656-2 0  9991
2 69185  53.1570 190.6189 0004355 326.4394  33.6351 15.77904777  5149
Epoch: 2026-06-19T13:23Z
TLE epoch observation values (Epoch: 2026-06-19T13:23:15.933Z)
Latitude
-0°
Longitude
82.01743°
Altitude
334.862 km
Speed
7.71 km/s
True Right ascension
12h 42m 28s
True Declination
0° 00' 00"
Sunlit
Object was in daylight at epoch
Visualization orbit readout
Latitude
Unknown
Longitude
Unknown
Altitude
Unknown
Speed
Unknown
Apparent Right ascension
Unknown
Apparent Declination
Unknown
Sunlit
N/A
Visualization observer readout
Local Sidereal Time
07:13:52
Azimuth
Unknown
Elevation
Unknown
Doppler factor
Unknown
Orbital elements
Apogee altitude
339.564 km
Perigee altitude
333.716 km
Semi-major axis
6,714.777 km
Eccentricity
0.00044
Inclination
53.157°
RAAN
190.6189°
Arg. of periapsis
326.4394°
True anomaly
33.66275°
Mean anomaly
33.6351°
Eccentric anomaly
33.64893°
Mean motion
3.94453 °/min
Orbital period
91.27 mins
BSTAR
0.0010656
Loading maneuver chart data...
Computing Atmospheric mass density...
Loading historical data...
Loading historical data...
Loading historical data...
Loading historical data...
Loading historical data...
Loading historical data...
Loading historical data...

Documentation

Showing up to 5 results
|